Location: Sabalos
(43.2860°N, 0.1414°E)
Time: 19:59:55
(UTC+00:00)

Cosmos 2184 Rocket - Pass Details

Date: 05 July 2020
Orbit: 960 x 1001 km, 82.9° (Epoch: 14 August)

Event Time Altitude Azimuth Distance (km) Brightness Sun altitude
Exits shadow 22:27:11 27° 197° (SSW) 1,790 5.0 -20.4°
Maximum altitude 22:30:50 76° 278° (W) 1,012 4.1 -20.6°
Drops below altitude 10° 22:37:09 10° 5° (N) 2,754 7.3 -21.1°
Sets 22:39:42 0° 7° (N) 3,712 8.1 -21.2°
